Cosmos 1400 - Orbit

View from above orbital plane
View from above orbital plane
View from above satellite
View from above satellite

Ground track
Ground track

The orbit data is extracted from the following two-line orbital elements,

1 13402U 82079A   13140.16000745  .00023308  00000-0  45226-3 0  9570
2 13402 081.1274 204.8037 0004690 230.5076 188.0427 15.47512765688949
Epoch (UTC): 20 May 2013 03:50:24
Eccentricity: 0.0004690
inclination: 81.1274°
perigee height: 421 km
apogee height: 427 km
right ascension of ascending node: 204.8037°
argument of perigee: 230.5076°
revolutions per day: 15.47512765
mean anomaly at epoch: 188.0427°
orbit number at epoch: 68894

The dashed part of the orbit path shows where the satellite is in the earth's shadow,  

Developed and maintained by Chris Peat, Heavens-Above GmbH. Please read the updated FAQ before sending e-mail. Imprint. DLR